Flag for Azerbaijan Weather past 2 weeks in Sumqayit, Azerbaijan

Now
41 °F

Overcast.


Feels Like: 38 °F
Forecast: 45 / 54 °F
Wind: 5 mph from North

Location: Baku / Bine Airport

Current Time: Feb 27, 2015 at 4:46:56 AM

Latest Report: Feb 27, 2015 at 4:00 AM


Visibility: N/A

Pressure: 30.48 "Hg

Humidity: 87%

Dew point: 37 °F

Location of SumqayitLocation

Historic Weather in Sumqayit — Graph

°F

Sumqayit temperature yesterday

Maximum temperature yesterday: 46 °F (at 2:00 PM)
Minimum temperature yesterday: 39 °F (at 12:00 AM)
Average temperature yesterday: 42 °F

Past Weeks' High & Low Weather Summary

 TemperatureHumidityPressure
High48 °F (Feb 16, 1:30 PM)100% (Feb 14, 10:00 PM)30.51 "Hg (Feb 14, 10:00 PM)
Low28 °F (Feb 23, 5:00 AM)50% (Feb 24, 3:30 PM)29.89 "Hg (Feb 20, 3:00 AM)
Average39 °F86%30.19 "Hg
* Reported Feb 12 4:00 AM — Feb 27 4:00 AM, Sumqayit, Weather by CustomWeather, © 2015

Note: Actual official high and low records may vary slightly from our data, if they occured in-between our weather recording intervals... More about our weather records

Advertising

Sumqayit weather history for previous 24 hours

 ConditionsComfort  
Time TempWeatherWind HumidityBarometerVisibility
4:00 AM
Fri, Feb 27
41 °FOvercast.5 mph87%30.48 "HgN/A
3:30 AM41 °FOvercast.6 mph87%30.51 "HgN/A
3:00 AM41 °FOvercast.7 mph87%30.51 "HgN/A
2:30 AM43 °FOvercast.3 mph87%30.51 "HgN/A
2:00 AM43 °FOvercast.3 mph81%30.51 "HgN/A
1:00 AM43 °FOvercast.6 mph81%30.51 "HgN/A
12:30 AM43 °FOvercast.5 mph81%30.51 "HgN/A
12:00 AM43 °FOvercast.6 mph81%30.51 "HgN/A
11:30 PM
Thu, Feb 26
43 °FOvercast.6 mph81%30.51 "HgN/A
11:00 PM43 °FOvercast.6 mph81%30.51 "HgN/A
10:30 PM43 °FOvercast.7 mph81%30.51 "HgN/A
10:00 PM43 °FOvercast.5 mph81%30.51 "HgN/A
9:30 PM41 °FPassing clouds.6 mph87%30.51 "HgN/A
9:00 PM41 °FPassing clouds.6 mph87%30.48 "HgN/A
8:30 PM41 °FPassing clouds.7 mph87%30.48 "HgN/A
8:00 PM41 °FPassing clouds.7 mph87%30.48 "HgN/A
7:30 PM43 °FPassing clouds.8 mph81%30.48 "HgN/A
7:00 PM41 °FPassing clouds.7 mph81%30.45 "HgN/A
6:30 PM43 °FPassing clouds.7 mph81%30.45 "HgN/A
6:00 PM43 °FPartly sunny.7 mph81%30.45 "HgN/A
5:30 PM43 °FPartly sunny.8 mph81%30.42 "HgN/A
5:00 PM45 °FPartly sunny.9 mph76%30.42 "HgN/A
4:30 PM45 °FPartly sunny.10 mph71%30.42 "HgN/A
4:00 PM45 °FPartly sunny.10 mph76%30.42 "HgN/A
3:30 PM45 °FPartly sunny.12 mph76%30.42 "HgN/A
3:00 PM45 °FPartly sunny.10 mph76%30.39 "HgN/A
2:30 PM45 °FPartly sunny.12 mph76%30.39 "HgN/A
2:00 PM46 °FPartly sunny.8 mph71%30.39 "HgN/A
1:30 PM45 °FPartly sunny.7 mph76%30.39 "HgN/A
1:00 PM45 °FPartly sunny.10 mph76%30.39 "HgN/A
12:30 PM45 °FOvercast.9 mph76%30.39 "HgN/A
12:00 PM45 °FOvercast.10 mph76%30.39 "HgN/A
11:30 AM45 °FOvercast.9 mph76%30.39 "HgN/A
11:00 AM45 °FBroken clouds.10 mph81%30.39 "HgN/A
10:30 AM45 °FBroken clouds.7 mph81%30.36 "HgN/A
10:00 AM45 °FScattered clouds.5 mph81%30.36 "HgN/A
9:30 AM43 °FPartly sunny.7 mph87%30.36 "HgN/A
9:00 AM41 °FMostly cloudy.7 mph87%30.36 "HgN/A
7:00 AM39 °FOvercast.6 mph87%30.33 "HgN/A
6:30 AM39 °FOvercast.6 mph87%30.30 "HgN/A
6:00 AM39 °FOvercast.6 mph87%30.30 "HgN/A
5:30 AM39 °FOvercast.6 mph87%30.27 "HgN/A
5:00 AM39 °FOvercast.7 mph87%30.27 "HgN/A
4:30 AM39 °FOvercast.6 mph87%30.24 "HgN/A
4:00 AM39 °FOvercast.5 mph87%30.24 "HgN/A
Weather by CustomWeather, © 2015

See weather overviewHow to use our weather pages